owner,sensor,date,latitude,longitude,vertical_datum,sea_water_practical_salinity,qcFlag 
DISL,ioos:station:DISL:MHPA:1,2013-07-01T00:00:00Z,30.6671,-87.9365,3.562,0.11,1111122 
DISL,ioos:station:DISL:MHPA:1,2013-07-01T00:30:00Z,30.6671,-87.9365,3.597,0.12,1111122 
DISL,ioos:station:DISL:MHPA:1,2013-07-01T01:00:00Z,30.6671,-87.9365,3.621,0.12,1111122 
DISL,ioos:station:DISL:MHPA:1,2013-07-01T01:30:00Z,30.6671,-87.9365,3.624,0.12,1111122 
DISL,ioos:station:DISL:MHPA:1,2013-07-01T02:00:00Z,30.6671,-87.9365,3.687,0.12,1111122 
DISL,ioos:station:DISL:MHPA:1,2013-07-01T02:30:00Z,30.6671,-87.9365,3.71,0.12,1111122 
DISL,ioos:station:DISL:MHPA:1,2013-07-01T03:00:00Z,30.6671,-87.9365,3.759,0.12,1111122 
DISL,ioos:station:DISL:MHPA:1,2013-07-01T03:30:00Z,30.6671,-87.9365,3.803,0.12,1111122 
DISL,ioos:station:DISL:MHPA:1,2013-07-01T04:00:00Z,30.6671,-87.9365,3.7,0.12,1111122 
DISL,ioos:station:DISL:MHPA:1,2013-07-01T04:30:00Z,30.6671,-87.9365,3.671,0.12,1111122 
DISL,ioos:station:DISL:MHPA:1,2013-07-01T05:00:00Z,30.6671,-87.9365,3.668,0.12,1111122 
DISL,ioos:station:DISL:MHPA:1,2013-07-01T05:30:00Z,30.6671,-87.9365,3.627,0.12,1111122 
DISL,ioos:station:DISL:MHPA:1,2013-07-01T06:00:00Z,30.6671,-87.9365,3.657,0.12,1111122 
DISL,ioos:station:DISL:MHPA:1,2013-07-01T06:30:00Z,30.6671,-87.9365,3.709,0.12,1111122 
DISL,ioos:station:DISL:MHPA:1,2013-07-01T07:00:00Z,30.6671,-87.9365,3.752,0.12,1111122 
DISL,ioos:station:DISL:MHPA:1,2013-07-01T07:30:00Z,30.6671,-87.9365,3.768,0.12,1111122 
DISL,ioos:station:DISL:MHPA:1,2013-07-01T08:00:00Z,30.6671,-87.9365,3.81,0.12,1111122 
DISL,ioos:station:DISL:MHPA:1,2013-07-01T08:30:00Z,30.6671,-87.9365,3.861,0.12,1111122 
DISL,ioos:station:DISL:MHPA:1,2013-07-01T09:00:00Z,30.6671,-87.9365,3.85,0.12,1111122 
DISL,ioos:station:DISL:MHPA:1,2013-07-01T09:30:00Z,30.6671,-87.9365,3.841,0.12,1111122 
DISL,ioos:station:DISL:MHPA:1,2013-07-01T10:00:00Z,30.6671,-87.9365,3.963,0.12,1111122 
DISL,ioos:station:DISL:MHPA:1,2013-07-01T10:30:00Z,30.6671,-87.9365,4.086,0.12,1111122 
DISL,ioos:station:DISL:MHPA:1,2013-07-01T11:00:00Z,30.6671,-87.9365,4.184,0.12,1111122 
DISL,ioos:station:DISL:MHPA:1,2013-07-01T11:30:00Z,30.6671,-87.9365,4.281,0.12,1111122 
DISL,ioos:station:DISL:MHPA:1,2013-07-01T12:00:00Z,30.6671,-87.9365,4.37,0.12,1111122 
DISL,ioos:station:DISL:MHPA:1,2013-07-01T12:30:00Z,30.6671,-87.9365,4.438,0.12,1111122 
DISL,ioos:station:DISL:MHPA:1,2013-07-01T13:00:00Z,30.6671,-87.9365,4.433,0.12,1111122 
DISL,ioos:station:DISL:MHPA:1,2013-07-01T13:30:00Z,30.6671,-87.9365,4.468,0.12,1111122 
DISL,ioos:station:DISL:MHPA:1,2013-07-01T14:00:00Z,30.6671,-87.9365,4.476,0.12,1111122 
DISL,ioos:station:DISL:MHPA:1,2013-07-01T14:30:00Z,30.6671,-87.9365,4.465,0.12,1111122 
DISL,ioos:station:DISL:MHPA:1,2013-07-01T15:00:00Z,30.6671,-87.9365,4.443,0.12,1111122 
DISL,ioos:station:DISL:MHPA:1,2013-07-01T15:30:00Z,30.6671,-87.9365,4.419,0.12,1111122 
DISL,ioos:station:DISL:MHPA:1,2013-07-01T16:00:00Z,30.6671,-87.9365,4.36,0.12,1111122 
DISL,ioos:station:DISL:MHPA:1,2013-07-01T16:30:00Z,30.6671,-87.9365,4.268,0.12,1111122 
DISL,ioos:station:DISL:MHPA:1,2013-07-01T17:00:00Z,30.6671,-87.9365,4.188,0.12,1111122 
DISL,ioos:station:DISL:MHPA:1,2013-07-01T17:30:00Z,30.6671,-87.9365,4.092,0.12,1111122 
DISL,ioos:station:DISL:MHPA:1,2013-07-01T18:00:00Z,30.6671,-87.9365,4.015,0.11,1111122 
DISL,ioos:station:DISL:MHPA:1,2013-07-01T18:30:00Z,30.6671,-87.9365,3.922,0.11,1111122 
DISL,ioos:station:DISL:MHPA:1,2013-07-01T19:00:00Z,30.6671,-87.9365,3.822,0.11,1111122 
DISL,ioos:station:DISL:MHPA:1,2013-07-01T19:30:00Z,30.6671,-87.9365,3.742,0.11,1111122 
DISL,ioos:station:DISL:MHPA:1,2013-07-01T20:00:00Z,30.6671,-87.9365,3.66,0.12,1111122 
DISL,ioos:station:DISL:MHPA:1,2013-07-01T20:30:00Z,30.6671,-87.9365,3.609,0.12,1111122 
DISL,ioos:station:DISL:MHPA:1,2013-07-01T21:00:00Z,30.6671,-87.9365,3.599,0.12,1111122 
DISL,ioos:station:DISL:MHPA:1,2013-07-01T21:30:00Z,30.6671,-87.9365,3.588,0.12,1111122 
DISL,ioos:station:DISL:MHPA:1,2013-07-01T22:00:00Z,30.6671,-87.9365,3.6,0.12,1111122 
DISL,ioos:station:DISL:MHPA:1,2013-07-01T22:30:00Z,30.6671,-87.9365,3.602,0.12,1111122 
DISL,ioos:station:DISL:MHPA:1,2013-07-01T23:00:00Z,30.6671,-87.9365,3.633,0.12,1111122 
DISL,ioos:station:DISL:MHPA:1,2013-07-01T23:30:00Z,30.6671,-87.9365,3.65,0.12,1111122 
DISL,ioos:station:DISL:MHPA:1,2013-07-02T00:00:00Z,30.6671,-87.9365,3.665,0.12,1111122 
DISL,ioos:station:DISL:MHPA:1,2013-07-02T00:30:00Z,30.6671,-87.9365,3.652,0.12,1111122 
DISL,ioos:station:DISL:MHPA:1,2013-07-02T01:00:00Z,30.6671,-87.9365,3.685,0.12,1111122 
DISL,ioos:station:DISL:MHPA:1,2013-07-02T01:30:00Z,30.6671,-87.9365,3.657,0.12,1111122 
DISL,ioos:station:DISL:MHPA:1,2013-07-02T02:00:00Z,30.6671,-87.9365,3.593,0.12,1111122 
DISL,ioos:station:DISL:MHPA:1,2013-07-02T02:30:00Z,30.6671,-87.9365,3.645,0.12,1111122 
DISL,ioos:station:DISL:MHPA:1,2013-07-02T03:00:00Z,30.6671,-87.9365,3.664,0.12,1111122 
DISL,ioos:station:DISL:MHPA:1,2013-07-02T03:30:00Z,30.6671,-87.9365,3.647,0.12,1111122 
DISL,ioos:station:DISL:MHPA:1,2013-07-02T04:00:00Z,30.6671,-87.9365,3.675,0.12,1111122 
DISL,ioos:station:DISL:MHPA:1,2013-07-02T04:30:00Z,30.6671,-87.9365,3.725,0.12,1111122 
DISL,ioos:station:DISL:MHPA:1,2013-07-02T05:00:00Z,30.6671,-87.9365,3.709,0.12,1111122 
DISL,ioos:station:DISL:MHPA:1,2013-07-02T05:30:00Z,30.6671,-87.9365,3.742,0.12,1111122 
DISL,ioos:station:DISL:MHPA:1,2013-07-02T06:00:00Z,30.6671,-87.9365,3.807,0.12,1111122 
DISL,ioos:station:DISL:MHPA:1,2013-07-02T06:30:00Z,30.6671,-87.9365,3.83,0.12,1111122 
DISL,ioos:station:DISL:MHPA:1,2013-07-02T07:00:00Z,30.6671,-87.9365,3.897,0.12,1111122 
DISL,ioos:station:DISL:MHPA:1,2013-07-02T07:30:00Z,30.6671,-87.9365,3.94,0.12,1111122 
DISL,ioos:station:DISL:MHPA:1,2013-07-02T08:00:00Z,30.6671,-87.9365,4.002,0.12,1111122 
DISL,ioos:station:DISL:MHPA:1,2013-07-02T08:30:00Z,30.6671,-87.9365,4.02,0.12,1111122 
DISL,ioos:station:DISL:MHPA:1,2013-07-02T09:00:00Z,30.6671,-87.9365,4.077,0.12,1111122 
DISL,ioos:station:DISL:MHPA:1,2013-07-02T09:30:00Z,30.6671,-87.9365,4.14,0.12,1111122 
DISL,ioos:station:DISL:MHPA:1,2013-07-02T10:00:00Z,30.6671,-87.9365,4.177,0.12,1111122 
DISL,ioos:station:DISL:MHPA:1,2013-07-02T10:30:00Z,30.6671,-87.9365,4.283,0.12,1111122 
DISL,ioos:station:DISL:MHPA:1,2013-07-02T11:00:00Z,30.6671,-87.9365,4.367,0.12,1111122 
DISL,ioos:station:DISL:MHPA:1,2013-07-02T11:30:00Z,30.6671,-87.9365,4.428,0.12,1111122 
DISL,ioos:station:DISL:MHPA:1,2013-07-02T12:00:00Z,30.6671,-87.9365,4.455,0.12,1111122 
DISL,ioos:station:DISL:MHPA:1,2013-07-02T12:30:00Z,30.6671,-87.9365,4.515,0.12,1111122 
DISL,ioos:station:DISL:MHPA:1,2013-07-02T13:00:00Z,30.6671,-87.9365,4.569,0.12,1111122 
DISL,ioos:station:DISL:MHPA:1,2013-07-02T13:30:00Z,30.6671,-87.9365,4.533,0.12,1111122 
DISL,ioos:station:DISL:MHPA:1,2013-07-02T14:00:00Z,30.6671,-87.9365,4.499,0.12,1111122 
DISL,ioos:station:DISL:MHPA:1,2013-07-02T14:30:00Z,30.6671,-87.9365,4.46,0.12,1111122 
DISL,ioos:station:DISL:MHPA:1,2013-07-02T15:00:00Z,30.6671,-87.9365,4.42,0.12,1111122 
DISL,ioos:station:DISL:MHPA:1,2013-07-02T15:30:00Z,30.6671,-87.9365,4.378,0.12,1111122 
DISL,ioos:station:DISL:MHPA:1,2013-07-02T16:00:00Z,30.6671,-87.9365,4.284,0.12,1111122 
DISL,ioos:station:DISL:MHPA:1,2013-07-02T16:30:00Z,30.6671,-87.9365,4.189,0.12,1111122 
DISL,ioos:station:DISL:MHPA:1,2013-07-02T17:00:00Z,30.6671,-87.9365,4.128,0.12,1111122 
DISL,ioos:station:DISL:MHPA:1,2013-07-02T17:30:00Z,30.6671,-87.9365,4.067,0.12,1111122 
DISL,ioos:station:DISL:MHPA:1,2013-07-02T18:00:00Z,30.6671,-87.9365,3.974,0.12,1111122 
DISL,ioos:station:DISL:MHPA:1,2013-07-02T18:30:00Z,30.6671,-87.9365,3.869,0.12,1111122 
DISL,ioos:station:DISL:MHPA:1,2013-07-02T19:00:00Z,30.6671,-87.9365,3.76,0.12,1111122 
DISL,ioos:station:DISL:MHPA:1,2013-07-02T19:30:00Z,30.6671,-87.9365,3.662,0.12,1111122 
DISL,ioos:station:DISL:MHPA:1,2013-07-02T20:00:00Z,30.6671,-87.9365,3.571,0.12,1111122 
DISL,ioos:station:DISL:MHPA:1,2013-07-02T20:30:00Z,30.6671,-87.9365,3.504,0.12,1111122 
DISL,ioos:station:DISL:MHPA:1,2013-07-02T21:00:00Z,30.6671,-87.9365,3.438,0.12,1111122 
DISL,ioos:station:DISL:MHPA:1,2013-07-02T21:30:00Z,30.6671,-87.9365,3.382,0.12,1111122 
DISL,ioos:station:DISL:MHPA:1,2013-07-02T22:00:00Z,30.6671,-87.9365,3.362,0.12,1111122 
DISL,ioos:station:DISL:MHPA:1,2013-07-02T22:30:00Z,30.6671,-87.9365,3.376,0.12,1111122 
DISL,ioos:station:DISL:MHPA:1,2013-07-02T23:00:00Z,30.6671,-87.9365,3.348,0.12,1111122 
DISL,ioos:station:DISL:MHPA:1,2013-07-02T23:30:00Z,30.6671,-87.9365,3.345,0.15,1111122 
DISL,ioos:station:DISL:MHPA:1,2013-07-03T00:00:00Z,30.6671,-87.9365,3.361,0.15,1111122 
DISL,ioos:station:DISL:MHPA:1,2013-07-03T00:30:00Z,30.6671,-87.9365,3.365,0.15,1111122 
DISL,ioos:station:DISL:MHPA:1,2013-07-03T01:00:00Z,30.6671,-87.9365,3.316,0.14,1111122 
DISL,ioos:station:DISL:MHPA:1,2013-07-03T01:30:00Z,30.6671,-87.9365,3.32,0.14,1111122 
DISL,ioos:station:DISL:MHPA:1,2013-07-03T02:00:00Z,30.6671,-87.9365,3.365,0.13,1111122 
DISL,ioos:station:DISL:MHPA:1,2013-07-03T02:30:00Z,30.6671,-87.9365,3.351,0.12,1111122 
DISL,ioos:station:DISL:MHPA:1,2013-07-03T03:00:00Z,30.6671,-87.9365,3.365,0.13,1111122 
DISL,ioos:station:DISL:MHPA:1,2013-07-03T03:30:00Z,30.6671,-87.9365,3.453,0.12,1111122 
DISL,ioos:station:DISL:MHPA:1,2013-07-03T04:00:00Z,30.6671,-87.9365,3.464,0.13,1111122 
DISL,ioos:station:DISL:MHPA:1,2013-07-03T04:30:00Z,30.6671,-87.9365,3.508,0.13,1111122 
DISL,ioos:station:DISL:MHPA:1,2013-07-03T05:00:00Z,30.6671,-87.9365,3.647,0.14,1111122 
DISL,ioos:station:DISL:MHPA:1,2013-07-03T05:30:00Z,30.6671,-87.9365,3.78,0.14,1111122 
DISL,ioos:station:DISL:MHPA:1,2013-07-03T06:00:00Z,30.6671,-87.9365,3.859,0.13,1111122 
DISL,ioos:station:DISL:MHPA:1,2013-07-03T06:30:00Z,30.6671,-87.9365,3.906,0.13,1111122 
DISL,ioos:station:DISL:MHPA:1,2013-07-03T07:00:00Z,30.6671,-87.9365,4.012,0.13,1111122 
DISL,ioos:station:DISL:MHPA:1,2013-07-03T07:30:00Z,30.6671,-87.9365,4.077,0.13,1111122 
DISL,ioos:station:DISL:MHPA:1,2013-07-03T08:00:00Z,30.6671,-87.9365,4.16,0.13,1111122 
DISL,ioos:station:DISL:MHPA:1,2013-07-03T08:30:00Z,30.6671,-87.9365,4.214,0.13,1111122 
DISL,ioos:station:DISL:MHPA:1,2013-07-03T09:00:00Z,30.6671,-87.9365,4.269,0.13,1111122 
DISL,ioos:station:DISL:MHPA:1,2013-07-03T09:30:00Z,30.6671,-87.9365,4.337,0.13,1111122 
DISL,ioos:station:DISL:MHPA:1,2013-07-03T10:00:00Z,30.6671,-87.9365,4.394,0.13,1111122 
DISL,ioos:station:DISL:MHPA:1,2013-07-03T10:30:00Z,30.6671,-87.9365,4.481,0.13,1111122 
DISL,ioos:station:DISL:MHPA:1,2013-07-03T11:00:00Z,30.6671,-87.9365,4.559,0.13,1111122 
DISL,ioos:station:DISL:MHPA:1,2013-07-03T11:30:00Z,30.6671,-87.9365,4.601,0.13,1111122 
DISL,ioos:station:DISL:MHPA:1,2013-07-03T12:00:00Z,30.6671,-87.9365,4.611,0.13,1111122 
DISL,ioos:station:DISL:MHPA:1,2013-07-03T12:30:00Z,30.6671,-87.9365,4.7,0.13,1111122 
DISL,ioos:station:DISL:MHPA:1,2013-07-03T13:00:00Z,30.6671,-87.9365,4.743,0.13,1111122 
DISL,ioos:station:DISL:MHPA:1,2013-07-03T13:30:00Z,30.6671,-87.9365,4.709,0.13,1111122 
DISL,ioos:station:DISL:MHPA:1,2013-07-03T14:00:00Z,30.6671,-87.9365,4.696,0.14,1111122 
DISL,ioos:station:DISL:MHPA:1,2013-07-03T14:30:00Z,30.6671,-87.9365,4.701,0.14,1111122 
DISL,ioos:station:DISL:MHPA:1,2013-07-03T15:00:00Z,30.6671,-87.9365,4.667,0.14,1111122 
DISL,ioos:station:DISL:MHPA:1,2013-07-03T15:30:00Z,30.6671,-87.9365,4.615,0.14,1111122 
DISL,ioos:station:DISL:MHPA:1,2013-07-03T16:00:00Z,30.6671,-87.9365,4.559,0.14,1111122 
DISL,ioos:station:DISL:MHPA:1,2013-07-03T16:30:00Z,30.6671,-87.9365,4.49,0.14,1111122 
DISL,ioos:station:DISL:MHPA:1,2013-07-03T17:00:00Z,30.6671,-87.9365,4.423,0.14,1111122 
DISL,ioos:station:DISL:MHPA:1,2013-07-03T17:30:00Z,30.6671,-87.9365,4.361,0.14,1111122 
DISL,ioos:station:DISL:MHPA:1,2013-07-03T18:00:00Z,30.6671,-87.9365,4.253,0.14,1111122 
DISL,ioos:station:DISL:MHPA:1,2013-07-03T18:30:00Z,30.6671,-87.9365,4.108,0.14,1111122 
DISL,ioos:station:DISL:MHPA:1,2013-07-03T19:00:00Z,30.6671,-87.9365,4.033,0.14,1111122 
DISL,ioos:station:DISL:MHPA:1,2013-07-03T19:30:00Z,30.6671,-87.9365,3.919,0.14,1111122 
DISL,ioos:station:DISL:MHPA:1,2013-07-03T20:00:00Z,30.6671,-87.9365,3.817,0.14,1111122 
DISL,ioos:station:DISL:MHPA:1,2013-07-03T20:30:00Z,30.6671,-87.9365,3.797,0.14,1111122 
DISL,ioos:station:DISL:MHPA:1,2013-07-03T21:00:00Z,30.6671,-87.9365,3.869,0.14,1111122 
DISL,ioos:station:DISL:MHPA:1,2013-07-03T21:30:00Z,30.6671,-87.9365,3.895,0.14,1111122 
DISL,ioos:station:DISL:MHPA:1,2013-07-03T22:00:00Z,30.6671,-87.9365,3.766,0.15,1111122 
DISL,ioos:station:DISL:MHPA:1,2013-07-03T22:30:00Z,30.6671,-87.9365,3.675,0.15,1111122 
DISL,ioos:station:DISL:MHPA:1,2013-07-03T23:00:00Z,30.6671,-87.9365,3.653,0.16,1111122 
DISL,ioos:station:DISL:MHPA:1,2013-07-03T23:30:00Z,30.6671,-87.9365,3.62,0.18,1111122 
DISL,ioos:station:DISL:MHPA:1,2013-07-04T00:00:00Z,30.6671,-87.9365,3.547,0.18,1111122 
DISL,ioos:station:DISL:MHPA:1,2013-07-04T00:30:00Z,30.6671,-87.9365,3.591,0.17,1111122 
DISL,ioos:station:DISL:MHPA:1,2013-07-04T01:00:00Z,30.6671,-87.9365,3.612,0.16,1111122 
DISL,ioos:station:DISL:MHPA:1,2013-07-04T01:30:00Z,30.6671,-87.9365,3.507,0.16,1111122 
DISL,ioos:station:DISL:MHPA:1,2013-07-04T02:00:00Z,30.6671,-87.9365,3.473,0.17,1111122 
DISL,ioos:station:DISL:MHPA:1,2013-07-04T02:30:00Z,30.6671,-87.9365,3.512,0.16,1111122 
DISL,ioos:station:DISL:MHPA:1,2013-07-04T03:00:00Z,30.6671,-87.9365,3.546,0.16,1111122 
DISL,ioos:station:DISL:MHPA:1,2013-07-04T03:30:00Z,30.6671,-87.9365,3.572,0.16,1111122 
DISL,ioos:station:DISL:MHPA:1,2013-07-04T04:00:00Z,30.6671,-87.9365,3.608,0.16,1111122 
DISL,ioos:station:DISL:MHPA:1,2013-07-04T04:30:00Z,30.6671,-87.9365,3.621,0.16,1111122 
DISL,ioos:station:DISL:MHPA:1,2013-07-04T05:00:00Z,30.6671,-87.9365,3.649,0.16,1111122 
DISL,ioos:station:DISL:MHPA:1,2013-07-04T05:30:00Z,30.6671,-87.9365,3.741,0.16,1111122 
DISL,ioos:station:DISL:MHPA:1,2013-07-04T06:00:00Z,30.6671,-87.9365,3.847,0.16,1111122 
DISL,ioos:station:DISL:MHPA:1,2013-07-04T06:30:00Z,30.6671,-87.9365,4.03,0.16,1111122 
DISL,ioos:station:DISL:MHPA:1,2013-07-04T07:00:00Z,30.6671,-87.9365,4.145,0.16,1111122 
DISL,ioos:station:DISL:MHPA:1,2013-07-04T07:30:00Z,30.6671,-87.9365,4.107,0.16,1111122 
DISL,ioos:station:DISL:MHPA:1,2013-07-04T08:00:00Z,30.6671,-87.9365,3.953,0.16,1111122 
DISL,ioos:station:DISL:MHPA:1,2013-07-04T08:30:00Z,30.6671,-87.9365,4.057,0.17,1111122 
DISL,ioos:station:DISL:MHPA:1,2013-07-04T09:00:00Z,30.6671,-87.9365,4.265,0.17,1111122 
DISL,ioos:station:DISL:MHPA:1,2013-07-04T09:30:00Z,30.6671,-87.9365,4.378,0.17,1111122 
DISL,ioos:station:DISL:MHPA:1,2013-07-04T10:00:00Z,30.6671,-87.9365,4.432,0.17,1111122 
DISL,ioos:station:DISL:MHPA:1,2013-07-04T10:30:00Z,30.6671,-87.9365,4.526,0.17,1111122 
DISL,ioos:station:DISL:MHPA:1,2013-07-04T11:00:00Z,30.6671,-87.9365,4.588,0.17,1111122 
DISL,ioos:station:DISL:MHPA:1,2013-07-04T11:30:00Z,30.6671,-87.9365,4.636,0.18,1111122 
DISL,ioos:station:DISL:MHPA:1,2013-07-04T12:00:00Z,30.6671,-87.9365,4.738,0.18,1111122 
DISL,ioos:station:DISL:MHPA:1,2013-07-04T12:30:00Z,30.6671,-87.9365,4.831,0.18,1111122 
DISL,ioos:station:DISL:MHPA:1,2013-07-04T13:00:00Z,30.6671,-87.9365,4.904,0.18,1111122 
DISL,ioos:station:DISL:MHPA:1,2013-07-04T13:30:00Z,30.6671,-87.9365,4.963,0.18,1111122 
DISL,ioos:station:DISL:MHPA:1,2013-07-04T14:00:00Z,30.6671,-87.9365,5.051,0.17,1111122 
DISL,ioos:station:DISL:MHPA:1,2013-07-04T14:30:00Z,30.6671,-87.9365,5.116,0.17,1111122 
DISL,ioos:station:DISL:MHPA:1,2013-07-04T15:00:00Z,30.6671,-87.9365,5.161,0.16,1111122 
DISL,ioos:station:DISL:MHPA:1,2013-07-04T15:30:00Z,30.6671,-87.9365,5.093,0.17,1111122 
DISL,ioos:station:DISL:MHPA:1,2013-07-04T16:00:00Z,30.6671,-87.9365,5.036,0.19,1111122 
DISL,ioos:station:DISL:MHPA:1,2013-07-04T16:30:00Z,30.6671,-87.9365,5.01,0.19,1111122 
DISL,ioos:station:DISL:MHPA:1,2013-07-04T17:00:00Z,30.6671,-87.9365,4.944,0.18,1111122 
DISL,ioos:station:DISL:MHPA:1,2013-07-04T17:30:00Z,30.6671,-87.9365,4.879,0.18,1111122 
DISL,ioos:station:DISL:MHPA:1,2013-07-04T18:00:00Z,30.6671,-87.9365,4.803,0.18,1111122 
DISL,ioos:station:DISL:MHPA:1,2013-07-04T18:30:00Z,30.6671,-87.9365,4.698,0.18,1111122 
DISL,ioos:station:DISL:MHPA:1,2013-07-04T19:00:00Z,30.6671,-87.9365,4.564,0.18,1111122 
DISL,ioos:station:DISL:MHPA:1,2013-07-04T19:30:00Z,30.6671,-87.9365,4.445,0.18,1111122 
DISL,ioos:station:DISL:MHPA:1,2013-07-04T20:00:00Z,30.6671,-87.9365,4.436,0.18,1111122 
DISL,ioos:station:DISL:MHPA:1,2013-07-04T20:30:00Z,30.6671,-87.9365,4.381,0.18,1111122 
DISL,ioos:station:DISL:MHPA:1,2013-07-04T21:00:00Z,30.6671,-87.9365,4.325,0.18,1111122 
DISL,ioos:station:DISL:MHPA:1,2013-07-04T21:30:00Z,30.6671,-87.9365,4.345,0.18,1111122 
DISL,ioos:station:DISL:MHPA:1,2013-07-04T22:00:00Z,30.6671,-87.9365,4.355,0.18,1111122 
DISL,ioos:station:DISL:MHPA:1,2013-07-04T22:30:00Z,30.6671,-87.9365,4.381,0.19,1111122 
DISL,ioos:station:DISL:MHPA:1,2013-07-04T23:00:00Z,30.6671,-87.9365,4.356,0.21,1111122 
DISL,ioos:station:DISL:MHPA:1,2013-07-04T23:30:00Z,30.6671,-87.9365,4.372,0.2,1111122 
DISL,ioos:station:DISL:MHPA:1,2013-07-05T00:00:00Z,30.6671,-87.9365,4.269,0.19,1111122 
DISL,ioos:station:DISL:MHPA:1,2013-07-05T00:30:00Z,30.6671,-87.9365,4.198,0.19,1111122 
DISL,ioos:station:DISL:MHPA:1,2013-07-05T01:00:00Z,30.6671,-87.9365,4.106,0.19,1111122 
DISL,ioos:station:DISL:MHPA:1,2013-07-05T01:30:00Z,30.6671,-87.9365,4.072,0.19,1111122 
DISL,ioos:station:DISL:MHPA:1,2013-07-05T02:00:00Z,30.6671,-87.9365,4.088,0.19,1111122 
DISL,ioos:station:DISL:MHPA:1,2013-07-05T02:30:00Z,30.6671,-87.9365,4.175,0.22,1111122 
DISL,ioos:station:DISL:MHPA:1,2013-07-05T03:00:00Z,30.6671,-87.9365,4.412,0.24,1111122 
DISL,ioos:station:DISL:MHPA:1,2013-07-05T03:30:00Z,30.6671,-87.9365,4.523,0.24,1111122 
DISL,ioos:station:DISL:MHPA:1,2013-07-05T04:00:00Z,30.6671,-87.9365,4.519,0.25,1111122 
DISL,ioos:station:DISL:MHPA:1,2013-07-05T04:30:00Z,30.6671,-87.9365,4.715,0.25,1111122 
DISL,ioos:station:DISL:MHPA:1,2013-07-05T05:00:00Z,30.6671,-87.9365,4.804,0.24,1111122 
DISL,ioos:station:DISL:MHPA:1,2013-07-05T05:30:00Z,30.6671,-87.9365,4.81,0.24,1111122 
DISL,ioos:station:DISL:MHPA:1,2013-07-05T06:00:00Z,30.6671,-87.9365,4.953,0.23,1111122 
DISL,ioos:station:DISL:MHPA:1,2013-07-05T06:30:00Z,30.6671,-87.9365,5.04,0.23,1111122 
DISL,ioos:station:DISL:MHPA:1,2013-07-05T07:00:00Z,30.6671,-87.9365,5.087,0.22,1111122 
DISL,ioos:station:DISL:MHPA:1,2013-07-05T07:30:00Z,30.6671,-87.9365,4.998,0.22,1111122 
DISL,ioos:station:DISL:MHPA:1,2013-07-05T08:00:00Z,30.6671,-87.9365,4.919,0.23,1111122 
DISL,ioos:station:DISL:MHPA:1,2013-07-05T08:30:00Z,30.6671,-87.9365,4.987,0.22,1111122 
DISL,ioos:station:DISL:MHPA:1,2013-07-05T09:00:00Z,30.6671,-87.9365,4.921,0.22,1111122 
DISL,ioos:station:DISL:MHPA:1,2013-07-05T09:30:00Z,30.6671,-87.9365,5.012,0.21,1111122 
DISL,ioos:station:DISL:MHPA:1,2013-07-05T10:00:00Z,30.6671,-87.9365,4.884,0.21,1111122 
DISL,ioos:station:DISL:MHPA:1,2013-07-05T10:30:00Z,30.6671,-87.9365,4.909,0.22,1111122 
DISL,ioos:station:DISL:MHPA:1,2013-07-05T11:00:00Z,30.6671,-87.9365,4.935,0.22,1111122 
DISL,ioos:station:DISL:MHPA:1,2013-07-05T11:30:00Z,30.6671,-87.9365,4.897,0.23,1111122 
DISL,ioos:station:DISL:MHPA:1,2013-07-05T12:00:00Z,30.6671,-87.9365,4.916,0.23,1111122 
DISL,ioos:station:DISL:MHPA:1,2013-07-05T12:30:00Z,30.6671,-87.9365,4.931,0.25,1111122 
DISL,ioos:station:DISL:MHPA:1,2013-07-05T13:00:00Z,30.6671,-87.9365,4.912,0.24,1111122 
DISL,ioos:station:DISL:MHPA:1,2013-07-05T13:30:00Z,30.6671,-87.9365,5.028,0.24,1111122 
DISL,ioos:station:DISL:MHPA:1,2013-07-05T14:00:00Z,30.6671,-87.9365,4.957,0.23,1111122 
DISL,ioos:station:DISL:MHPA:1,2013-07-05T14:30:00Z,30.6671,-87.9365,5.111,0.24,1111122 
DISL,ioos:station:DISL:MHPA:1,2013-07-05T15:00:00Z,30.6671,-87.9365,5.233,0.23,1111122 
DISL,ioos:station:DISL:MHPA:1,2013-07-05T15:30:00Z,30.6671,-87.9365,5.212,0.24,1111122 
DISL,ioos:station:DISL:MHPA:1,2013-07-05T16:00:00Z,30.6671,-87.9365,5.19,0.25,1111122 
DISL,ioos:station:DISL:MHPA:1,2013-07-05T16:30:00Z,30.6671,-87.9365,5.175,0.25,1111122 
DISL,ioos:station:DISL:MHPA:1,2013-07-05T17:00:00Z,30.6671,-87.9365,5.211,0.25,1111122 
DISL,ioos:station:DISL:MHPA:1,2013-07-05T17:30:00Z,30.6671,-87.9365,5.196,0.25,1111122 
DISL,ioos:station:DISL:MHPA:1,2013-07-05T18:00:00Z,30.6671,-87.9365,5.132,0.25,1111122 
DISL,ioos:station:DISL:MHPA:1,2013-07-05T18:30:00Z,30.6671,-87.9365,5.2,0.25,1111122 
DISL,ioos:station:DISL:MHPA:1,2013-07-05T19:00:00Z,30.6671,-87.9365,5.201,0.25,1111122 
DISL,ioos:station:DISL:MHPA:1,2013-07-05T19:30:00Z,30.6671,-87.9365,4.986,0.24,1111122 
DISL,ioos:station:DISL:MHPA:1,2013-07-05T20:00:00Z,30.6671,-87.9365,4.85,0.24,1111122 
DISL,ioos:station:DISL:MHPA:1,2013-07-05T20:30:00Z,30.6671,-87.9365,4.729,0.24,1111122 
DISL,ioos:station:DISL:MHPA:1,2013-07-05T21:00:00Z,30.6671,-87.9365,4.519,0.25,1111122 
DISL,ioos:station:DISL:MHPA:1,2013-07-05T21:30:00Z,30.6671,-87.9365,4.254,0.25,1111122 
DISL,ioos:station:DISL:MHPA:1,2013-07-05T22:00:00Z,30.6671,-87.9365,4.045,0.25,1111122 
DISL,ioos:station:DISL:MHPA:1,2013-07-05T22:30:00Z,30.6671,-87.9365,3.931,0.25,1111122 
DISL,ioos:station:DISL:MHPA:1,2013-07-05T23:00:00Z,30.6671,-87.9365,3.845,0.25,1111122 
DISL,ioos:station:DISL:MHPA:1,2013-07-05T23:30:00Z,30.6671,-87.9365,3.752,0.24,1111122 
DISL,ioos:station:DISL:MHPA:1,2013-07-06T00:00:00Z,30.6671,-87.9365,3.706,0.24,1111122 
DISL,ioos:station:DISL:MHPA:1,2013-07-06T00:30:00Z,30.6671,-87.9365,3.664,0.24,1111122 
DISL,ioos:station:DISL:MHPA:1,2013-07-06T01:00:00Z,30.6671,-87.9365,3.621,0.24,1111122 
DISL,ioos:station:DISL:MHPA:1,2013-07-06T01:30:00Z,30.6671,-87.9365,3.598,0.24,1111122 
DISL,ioos:station:DISL:MHPA:1,2013-07-06T02:00:00Z,30.6671,-87.9365,3.521,0.24,1111122 
DISL,ioos:station:DISL:MHPA:1,2013-07-06T02:30:00Z,30.6671,-87.9365,3.462,0.24,1111122 
DISL,ioos:station:DISL:MHPA:1,2013-07-06T03:00:00Z,30.6671,-87.9365,3.433,0.25,1111122 
DISL,ioos:station:DISL:MHPA:1,2013-07-06T03:30:00Z,30.6671,-87.9365,3.413,0.25,1111122 
DISL,ioos:station:DISL:MHPA:1,2013-07-06T04:00:00Z,30.6671,-87.9365,3.441,0.25,1111122 
DISL,ioos:station:DISL:MHPA:1,2013-07-06T04:30:00Z,30.6671,-87.9365,3.614,0.26,1111122 
DISL,ioos:station:DISL:MHPA:1,2013-07-06T05:00:00Z,30.6671,-87.9365,3.734,0.25,1111122 
DISL,ioos:station:DISL:MHPA:1,2013-07-06T05:30:00Z,30.6671,-87.9365,3.762,0.26,1111122 
DISL,ioos:station:DISL:MHPA:1,2013-07-06T06:00:00Z,30.6671,-87.9365,3.816,0.28,1111122 
DISL,ioos:station:DISL:MHPA:1,2013-07-06T06:30:00Z,30.6671,-87.9365,3.927,0.28,1111122 
DISL,ioos:station:DISL:MHPA:1,2013-07-06T07:00:00Z,30.6671,-87.9365,3.997,0.29,1111122 
DISL,ioos:station:DISL:MHPA:1,2013-07-06T07:30:00Z,30.6671,-87.9365,4.091,0.29,1111122 
DISL,ioos:station:DISL:MHPA:1,2013-07-06T08:00:00Z,30.6671,-87.9365,4.148,0.3,1111122 
DISL,ioos:station:DISL:MHPA:1,2013-07-06T08:30:00Z,30.6671,-87.9365,4.264,0.3,1111122 
DISL,ioos:station:DISL:MHPA:1,2013-07-06T09:00:00Z,30.6671,-87.9365,4.328,0.31,1111122 
DISL,ioos:station:DISL:MHPA:1,2013-07-06T09:30:00Z,30.6671,-87.9365,4.398,0.31,1111122 
DISL,ioos:station:DISL:MHPA:1,2013-07-06T10:00:00Z,30.6671,-87.9365,4.387,0.32,1111122 
DISL,ioos:station:DISL:MHPA:1,2013-07-06T10:30:00Z,30.6671,-87.9365,4.403,0.32,1111122 
DISL,ioos:station:DISL:MHPA:1,2013-07-06T11:00:00Z,30.6671,-87.9365,4.451,0.32,1111122 
DISL,ioos:station:DISL:MHPA:1,2013-07-06T11:30:00Z,30.6671,-87.9365,4.539,0.3,1111122 
DISL,ioos:station:DISL:MHPA:1,2013-07-06T12:00:00Z,30.6671,-87.9365,4.527,0.3,1111122 
DISL,ioos:station:DISL:MHPA:1,2013-07-06T12:30:00Z,30.6671,-87.9365,4.632,0.3,1111122 
DISL,ioos:station:DISL:MHPA:1,2013-07-06T13:00:00Z,30.6671,-87.9365,4.718,0.32,1111122 
DISL,ioos:station:DISL:MHPA:1,2013-07-06T13:30:00Z,30.6671,-87.9365,4.802,0.31,1111122 
DISL,ioos:station:DISL:MHPA:1,2013-07-06T14:00:00Z,30.6671,-87.9365,5.096,0.41,1111122 
DISL,ioos:station:DISL:MHPA:1,2013-07-06T14:30:00Z,30.6671,-87.9365,5.709,0.35,1111122 
DISL,ioos:station:DISL:MHPA:1,2013-07-06T15:00:00Z,30.6671,-87.9365,5.229,0.37,1111122 
DISL,ioos:station:DISL:MHPA:1,2013-07-06T15:30:00Z,30.6671,-87.9365,4.976,0.46,1111122 